Weather History for K1V4 - January, 2015

Change the Weather History Date:

Sunday, January 25, 2015

  Actual Average Record
Temperature  
Mean Temperature 13 °F 16 °F  
Max Temperature 30 °F 27 °F 57 °F (1938)
Min Temperature -4 °F 6 °F -30 °F (1922)
Degree Days  
Heating Degree Days 52 49  
Month to date heating degree days 1288 1208  
Since 1 July heating degree days 4088 4161  
Cooling Degree Days 0 0  
Month to date cooling degree days 0 0  
Year to date cooling degree days 0 0  
Moisture  
Dew Point 7 °F    
Average Humidity 74    
Maximum Humidity 92    
Minimum Humidity 55    
Precipitation  
Precipitation 0.03 in 0.08 in 0.79 in (1928)
Month to date precipitation 2.32 2.02  
Year to date precipitation 2.32 2.02  
Sea Level Pressure  
Sea Level Pressure 29.71 in    
Wind  
Wind Speed - (North)    
Max Wind Speed -    
Max Gust Speed -    
T = Trace of Precipitation, MM = Missing Value Source: NWS Daily Summary

Daily Weather History Graph

Daily Weather History Graph

Search for Another Location

Airport or City:

Trip Planner

Search our weather history database for the weather conditions in past years. The results will help you decide how hot, cold, wet, or windy it might be!

Date:

Astronomy

Jan. 25, 2015 Rise Set
Actual Time 7:13 AM EST 4:47 PM EST
Civil Twilight 6:42 AM EST 5:18 PM EST
Nautical Twilight 6:07 AM EST 5:54 PM EST
Astronomical Twilight 5:32 AM EST 6:28 PM EST
Moon 10:03 AM EST 11:24 PM EST
Length of Visible Light 10h 36m
Length of Day
9h 33m
Waxing Crescent, 34% of the Moon is Illuminated
Jan 25
Waxing Crescent
Jan 26
First Quarter
Feb 3
Full
Feb 11
Last Quarter
Feb 18
New

Hourly Weather History & Observations

Time (EST) Temp. Dew Point Humidity Pressure Visibility Wind Dir Wind Speed Gust Speed Precip Events Conditions
12:54 AM 28.9 °F 23.0 °F 78% 29.29 in - North - - N/A   Unknown
1:54 AM 28.9 °F 24.1 °F 82% 29.29 in - North - - N/A   Unknown
2:54 AM 30.0 °F 24.1 °F 79% 29.30 in - North - - N/A   Unknown
3:54 AM 30.0 °F 24.1 °F 79% 29.32 in - North - - N/A   Unknown
4:54 AM 28.9 °F 26.1 °F 89% 29.34 in - North - - 0.01 in   Unknown
5:54 AM 28.9 °F 26.1 °F 89% 29.38 in - North - - 0.01 in   Unknown
6:54 AM 27.0 °F 19.9 °F 75% 29.45 in - North - - N/A   Unknown
7:54 AM 21.0 °F 12.9 °F 71% 29.52 in - North - - N/A   Unknown
8:54 AM 17.1 °F 10.0 °F 74% 29.61 in - North - - 0.01 in   Unknown
9:54 AM 14.0 °F 3.0 °F 62% 29.66 in - North - - N/A   Unknown
10:54 AM 14.0 °F 1.9 °F 59% 29.69 in - North - - N/A   Unknown
11:54 AM 12.9 °F 1.0 °F 59% 29.73 in - North - - N/A   Unknown
12:54 PM 12.9 °F -0.0 °F 56% 29.73 in - North - - N/A   Unknown
1:54 PM 14.0 °F -0.0 °F 54% 29.76 in - North - - N/A   Unknown
2:54 PM 12.9 °F -0.9 °F 54% 29.80 in - North - - N/A   Unknown
3:54 PM 12.0 °F -0.9 °F 56% 29.85 in - North - - N/A   Unknown
4:54 PM 10.0 °F -2.0 °F 58% 29.89 in - North - - N/A   Unknown
5:54 PM 7.0 °F -2.9 °F 64% 29.93 in - North - - N/A   Unknown
6:54 PM 6.1 °F -2.9 °F 67% 29.98 in - North - - N/A   Unknown
7:54 PM 3.0 °F -2.9 °F 76% 30.04 in - North - - N/A   Unknown
8:54 PM 1.0 °F -4.0 °F 79% 30.07 in - North - - N/A   Unknown
9:54 PM -0.9 °F -5.1 °F 83% 30.10 in - North - - N/A   Unknown
10:54 PM -2.9 °F -6.0 °F 87% 30.11 in - North - - N/A   Unknown
11:54 PM -4.0 °F -8.0 °F 83% 30.12 in - North - - N/A   Unknown